PTLOP SWFN-SWPI

Flight info

Callsign PTLOP
Flight time N/A
Altitude 21000
Route 0305S05954W 0301S05949W 0312S05939W DCT 0318S05908W DCT 0253S05710W 0257S05656W 0247S05644W DCT 0241S05644W
Aircraft B36T/L-BDFGLORY/S

Departure

Time 2026-04-21 04:06
Airport Flores Airport (SWFN)

Arrival

Time N/A
Airport Parintins Airport (SWPI)
Time Latitude Longitude Altitude Speed Heading
2026-04-21 03:55 -3.07216 -60.02272 203 ft 0 kts 187°
2026-04-21 04:03 -3.07223 -60.02274 208 ft 7 kts 200°
2026-04-21 04:03 -3.07234 -60.02283 205 ft 1 kts 237°
2026-04-21 04:04 -3.07233 -60.02323 204 ft 5 kts 275°
2026-04-21 04:04 -3.07230 -60.02350 204 ft 4 kts 276°
2026-04-21 04:04 -3.07222 -60.02405 204 ft 3 kts 275°
2026-04-21 04:04 -3.07220 -60.02426 211 ft 8 kts 275°
2026-04-21 04:05 -3.07216 -60.02469 203 ft 3 kts 262°
2026-04-21 04:05 -3.07226 -60.02475 207 ft 2 kts 178°
2026-04-21 04:05 -3.07244 -60.02458 204 ft 5 kts 99°
2026-04-21 04:05 -3.07287 -60.02176 206 ft 87 kts 99°
2026-04-21 04:06 -3.07386 -60.01431 534 ft 123 kts 94°
2026-04-21 04:06 -3.07444 -60.00499 917 ft 149 kts 90°
2026-04-21 04:06 -3.07493 -59.99375 952 ft 174 kts 94°
2026-04-21 04:06 -3.07595 -59.98266 1061 ft 143 kts 95°
2026-04-21 04:07 -3.07688 -59.97297 1217 ft 137 kts 95°
2026-04-21 04:07 -3.07768 -59.96361 1379 ft 134 kts 94°
2026-04-21 04:07 -3.07846 -59.95437 1526 ft 133 kts 94°
2026-04-21 04:07 -3.07927 -59.94501 1638 ft 138 kts 94°
2026-04-21 04:08 -3.07954 -59.94194 1631 ft 139 kts 94°
2026-04-21 04:08 -3.07977 -59.93927 1633 ft 140 kts 94°
2026-04-21 04:08 -3.08056 -59.92994 1657 ft 144 kts 94°
2026-04-21 04:08 -3.08137 -59.91959 1651 ft 155 kts 94°
2026-04-21 04:09 -3.08238 -59.90866 1641 ft 158 kts 95°
2026-04-21 04:09 -3.08175 -59.89779 1624 ft 158 kts 69°
2026-04-21 04:09 -3.07596 -59.88839 1640 ft 160 kts 57°
2026-04-21 04:09 -3.06978 -59.87907 1643 ft 162 kts 58°
2026-04-21 04:10 -3.06362 -59.86968 1640 ft 161 kts 58°
2026-04-21 04:10 -3.05756 -59.86046 1634 ft 160 kts 58°
2026-04-21 04:10 -3.05140 -59.85118 1647 ft 161 kts 57°
2026-04-21 04:10 -3.04519 -59.84180 1688 ft 163 kts 59°
2026-04-21 04:11 -3.03887 -59.83229 1729 ft 165 kts 58°
2026-04-21 04:11 -3.03308 -59.82245 1771 ft 163 kts 68°
2026-04-21 04:11 -3.03099 -59.81138 1858 ft 165 kts 89°
2026-04-21 04:11 -3.03316 -59.80001 1918 ft 170 kts 111°
2026-04-21 04:12 -3.04004 -59.79035 1962 ft 174 kts 135°
2026-04-21 04:12 -3.04915 -59.78230 2007 ft 172 kts 133°
2026-04-21 04:12 -3.05734 -59.77404 2046 ft 164 kts 131°
2026-04-21 04:12 -3.06532 -59.76592 2051 ft 163 kts 132°
2026-04-21 04:13 -3.07329 -59.75795 2010 ft 161 kts 133°
2026-04-21 04:13 -3.08117 -59.75019 1921 ft 157 kts 132°
2026-04-21 04:13 -3.08880 -59.74269 1834 ft 151 kts 131°
2026-04-21 04:13 -3.09622 -59.73548 1797 ft 147 kts 131°
2026-04-21 04:14 -3.10354 -59.72837 1789 ft 146 kts 131°
2026-04-21 04:14 -3.11074 -59.72123 1790 ft 146 kts 131°
2026-04-21 04:14 -3.11788 -59.71422 1861 ft 142 kts 131°
2026-04-21 04:14 -3.12495 -59.70721 1872 ft 144 kts 132°
2026-04-21 04:15 -3.13210 -59.70018 1880 ft 145 kts 132°
2026-04-21 04:15 -3.13934 -59.69313 1888 ft 146 kts 132°
2026-04-21 04:15 -3.14662 -59.68604 1893 ft 146 kts 132°
2026-04-21 04:15 -3.15392 -59.67891 1899 ft 147 kts 132°
2026-04-21 04:16 -3.16123 -59.67177 1899 ft 147 kts 132°
2026-04-21 04:16 -3.16855 -59.66462 1900 ft 147 kts 132°
2026-04-21 04:16 -3.17587 -59.65744 1903 ft 147 kts 132°
2026-04-21 04:16 -3.18317 -59.65026 1894 ft 147 kts 132°
2026-04-21 04:17 -3.19028 -59.64301 1885 ft 145 kts 124°
2026-04-21 04:17 -3.19370 -59.63373 1883 ft 143 kts 98°
2026-04-21 04:17 -3.19558 -59.62391 1890 ft 144 kts 100°
2026-04-21 04:17 -3.19764 -59.61420 2146 ft 146 kts 99°
2026-04-21 04:18 -3.19978 -59.60410 2446 ft 151 kts 101°
2026-04-21 04:18 -3.20205 -59.59371 2744 ft 157 kts 100°
2026-04-21 04:18 -3.20441 -59.58253 3045 ft 172 kts 99°
2026-04-21 04:18 -3.20694 -59.57090 3327 ft 157 kts 100°
2026-04-21 04:19 -3.20917 -59.56070 3612 ft 147 kts 100°
2026-04-21 04:19 -3.21134 -59.55019 3908 ft 160 kts 100°
2026-04-21 04:19 -3.21371 -59.53903 4193 ft 166 kts 101°
2026-04-21 04:19 -3.21618 -59.52761 4488 ft 169 kts 101°
2026-04-21 04:20 -3.21869 -59.51604 4779 ft 171 kts 101°
2026-04-21 04:20 -3.22122 -59.50436 5065 ft 172 kts 101°
2026-04-21 04:20 -3.22373 -59.49265 5359 ft 173 kts 101°
2026-04-21 04:20 -3.22624 -59.48090 5648 ft 173 kts 101°
2026-04-21 04:21 -3.22875 -59.46914 5934 ft 173 kts 101°
2026-04-21 04:21 -3.23127 -59.45738 6230 ft 173 kts 101°
2026-04-21 04:21 -3.23377 -59.44561 6501 ft 173 kts 102°
2026-04-21 04:21 -3.23628 -59.43379 6785 ft 174 kts 102°
2026-04-21 04:22 -3.23881 -59.42192 7067 ft 175 kts 102°
2026-04-21 04:22 -3.24050 -59.41404 7257 ft 175 kts 102°
2026-04-21 04:22 -3.24304 -59.40212 7544 ft 175 kts 102°
2026-04-21 04:22 -3.24646 -59.38602 7929 ft 182 kts 102°
2026-04-21 04:23 -3.24819 -59.37786 8123 ft 182 kts 103°
2026-04-21 04:23 -3.25173 -59.36113 8514 ft 189 kts 103°
2026-04-21 04:23 -3.25450 -59.34823 8807 ft 190 kts 103°
2026-04-21 04:23 -3.25639 -59.33944 9009 ft 192 kts 103°
2026-04-21 04:24 -3.25920 -59.32639 9308 ft 192 kts 105°
2026-04-21 04:24 -3.26595 -59.31522 9609 ft 191 kts 137°
2026-04-21 04:24 -3.27613 -59.30663 9902 ft 192 kts 143°
2026-04-21 04:24 -3.28673 -59.29852 10174 ft 192 kts 145°
2026-04-21 04:25 -3.29736 -59.29063 10449 ft 193 kts 145°
2026-04-21 04:25 -3.30715 -59.28121 10731 ft 197 kts 121°
2026-04-21 04:25 -3.31200 -59.26857 11009 ft 199 kts 102°
2026-04-21 04:25 -3.31383 -59.25460 11301 ft 201 kts 98°
2026-04-21 04:26 -3.31463 -59.24057 11589 ft 203 kts 94°
2026-04-21 04:26 -3.31467 -59.22652 11874 ft 208 kts 92°
2026-04-21 04:26 -3.31437 -59.21193 12172 ft 206 kts 91°
2026-04-21 04:26 -3.31397 -59.19778 12465 ft 206 kts 90°
2026-04-21 04:27 -3.31350 -59.18346 12760 ft 206 kts 90°
2026-04-21 04:27 -3.31274 -59.16911 13058 ft 207 kts 85°
2026-04-21 04:27 -3.30958 -59.15501 13361 ft 209 kts 75°
2026-04-21 04:27 -3.30484 -59.14101 13666 ft 216 kts 71°
2026-04-21 04:28 -3.30017 -59.12654 13942 ft 221 kts 77°
2026-04-21 04:28 -3.29641 -59.11149 14214 ft 224 kts 78°
2026-04-21 04:28 -3.29284 -59.09621 14487 ft 226 kts 79°
2026-04-21 04:28 -3.28938 -59.08082 14762 ft 227 kts 79°
2026-04-21 04:29 -3.28603 -59.06535 15040 ft 228 kts 79°
2026-04-21 04:29 -3.28271 -59.04982 15323 ft 228 kts 79°
2026-04-21 04:29 -3.27951 -59.03455 15610 ft 221 kts 80°
2026-04-21 04:29 -3.27637 -59.01961 15893 ft 218 kts 80°
2026-04-21 04:30 -3.27325 -59.00485 16182 ft 216 kts 80°
2026-04-21 04:30 -3.27013 -58.99017 16479 ft 216 kts 80°
2026-04-21 04:30 -3.26705 -58.97553 16764 ft 214 kts 80°
2026-04-21 04:30 -3.26400 -58.96106 17057 ft 211 kts 80°
2026-04-21 04:31 -3.26095 -58.94661 17355 ft 214 kts 80°
2026-04-21 04:31 -3.25785 -58.93195 17662 ft 216 kts 80°
2026-04-21 04:31 -3.25475 -58.91717 17973 ft 218 kts 80°
2026-04-21 04:31 -3.25161 -58.90229 18272 ft 219 kts 80°
2026-04-21 04:32 -3.24849 -58.88733 18539 ft 220 kts 80°
2026-04-21 04:32 -3.24533 -58.87237 18807 ft 220 kts 80°
2026-04-21 04:32 -3.24219 -58.85740 19076 ft 220 kts 80°
2026-04-21 04:32 -3.23869 -58.84247 19344 ft 220 kts 78°
2026-04-21 04:33 -3.23480 -58.82765 19617 ft 220 kts 77°
2026-04-21 04:33 -3.23080 -58.81288 19892 ft 220 kts 77°
2026-04-21 04:33 -3.22678 -58.79812 20173 ft 220 kts 77°
2026-04-21 04:33 -3.22277 -58.78337 20460 ft 219 kts 77°
2026-04-21 04:34 -3.21880 -58.76866 20739 ft 219 kts 77°
2026-04-21 04:34 -3.21482 -58.75393 20916 ft 224 kts 77°
2026-04-21 04:34 -3.21072 -58.73857 20959 ft 232 kts 77°
2026-04-21 04:34 -3.20651 -58.72279 20991 ft 238 kts 77°
2026-04-21 04:35 -3.20221 -58.70664 20994 ft 242 kts 77°
2026-04-21 04:35 -3.19787 -58.69029 20995 ft 244 kts 77°
2026-04-21 04:35 -3.19345 -58.67382 20995 ft 246 kts 77°
2026-04-21 04:35 -3.18898 -58.65725 20994 ft 247 kts 77°
2026-04-21 04:36 -3.18452 -58.64063 20993 ft 248 kts 77°
2026-04-21 04:36 -3.18005 -58.62398 20992 ft 248 kts 77°
2026-04-21 04:36 -3.17558 -58.60731 20989 ft 248 kts 77°
2026-04-21 04:36 -3.17112 -58.59065 20989 ft 248 kts 77°
2026-04-21 04:37 -3.16666 -58.57399 20993 ft 248 kts 77°
2026-04-21 04:37 -3.16219 -58.55731 20994 ft 248 kts 77°
2026-04-21 04:37 -3.15774 -58.54062 20997 ft 248 kts 77°
2026-04-21 04:37 -3.15326 -58.52391 20997 ft 249 kts 77°
2026-04-21 04:38 -3.14878 -58.50717 20994 ft 249 kts 77°
2026-04-21 04:38 -3.14435 -58.49054 20993 ft 244 kts 77°
2026-04-21 04:38 -3.14008 -58.47442 20991 ft 236 kts 77°
2026-04-21 04:38 -3.13590 -58.45871 20990 ft 232 kts 77°
2026-04-21 04:39 -3.13175 -58.44320 20991 ft 232 kts 77°
2026-04-21 04:39 -3.12750 -58.42743 20993 ft 238 kts 77°
2026-04-21 04:39 -3.12320 -58.41131 20994 ft 241 kts 77°
2026-04-21 04:39 -3.11887 -58.39503 20997 ft 243 kts 77°
2026-04-21 04:40 -3.11451 -58.37865 20996 ft 244 kts 77°
2026-04-21 04:40 -3.11010 -58.36222 20997 ft 244 kts 77°
2026-04-21 04:40 -3.10571 -58.34583 20994 ft 244 kts 77°
2026-04-21 04:40 -3.10131 -58.32941 20993 ft 242 kts 77°
2026-04-21 04:41 -3.09758 -58.31536 20974 ft 171 kts 78°
2026-04-21 04:41 -3.09484 -58.30547 20918 ft 129 kts 78°
2026-04-21 04:41 -3.09250 -58.29729 20583 ft 120 kts 79°
2026-04-21 04:41 -3.09003 -58.28899 20517 ft 128 kts 74°
2026-04-21 04:42 -3.08704 -58.28025 20784 ft 140 kts 77°
2026-04-21 04:42 -3.08437 -58.27018 20911 ft 160 kts 80°
2026-04-21 04:42 -3.08173 -58.25871 20974 ft 178 kts 80°
2026-04-21 04:42 -3.07880 -58.24612 20995 ft 192 kts 79°
2026-04-21 04:43 -3.07550 -58.23279 20998 ft 202 kts 78°
2026-04-21 04:43 -3.07192 -58.21901 20996 ft 208 kts 78°
2026-04-21 04:43 -3.06818 -58.20493 20988 ft 211 kts 77°
2026-04-21 04:43 -3.06435 -58.19073 20985 ft 213 kts 77°
2026-04-21 04:44 -3.06047 -58.17643 20984 ft 214 kts 77°
2026-04-21 04:44 -3.05657 -58.16204 20982 ft 214 kts 77°
2026-04-21 04:44 -3.05270 -58.14763 20983 ft 215 kts 77°
2026-04-21 04:44 -3.04882 -58.13322 20981 ft 215 kts 77°
2026-04-21 04:45 -3.04493 -58.11875 20982 ft 215 kts 77°
2026-04-21 04:45 -3.04105 -58.10428 20982 ft 216 kts 77°
2026-04-21 04:45 -3.03716 -58.08979 20983 ft 215 kts 77°
2026-04-21 04:45 -3.03328 -58.07540 20985 ft 215 kts 77°
2026-04-21 04:46 -3.02941 -58.06099 20986 ft 214 kts 77°
2026-04-21 04:46 -3.02560 -58.04676 20988 ft 215 kts 78°
2026-04-21 04:46 -3.02175 -58.03234 20987 ft 214 kts 77°
2026-04-21 04:46 -3.01790 -58.01792 20987 ft 215 kts 77°
2026-04-21 04:47 -3.01404 -58.00352 20987 ft 215 kts 77°
2026-04-21 04:47 -3.01014 -57.98893 20938 ft 217 kts 77°
2026-04-21 04:47 -3.00625 -57.97432 20910 ft 217 kts 77°
2026-04-21 04:47 -3.00229 -57.95955 20903 ft 216 kts 77°
2026-04-21 04:48 -2.99840 -57.94504 20898 ft 216 kts 77°
2026-04-21 04:48 -2.99452 -57.93056 20895 ft 216 kts 77°
2026-04-21 04:48 -2.99072 -57.91629 20892 ft 214 kts 76°
2026-04-21 04:48 -2.98687 -57.90194 20893 ft 213 kts 76°
2026-04-21 04:49 -2.98305 -57.88764 20893 ft 212 kts 76°
2026-04-21 04:49 -2.97924 -57.87342 20893 ft 211 kts 76°
2026-04-21 04:49 -2.97537 -57.85906 20893 ft 211 kts 76°
2026-04-21 04:49 -2.97152 -57.84484 20809 ft 215 kts 76°
2026-04-21 04:50 -2.96757 -57.83011 20551 ft 223 kts 76°
2026-04-21 04:50 -2.96357 -57.81499 20294 ft 227 kts 76°
2026-04-21 04:50 -2.95950 -57.79968 20033 ft 229 kts 76°
2026-04-21 04:50 -2.95539 -57.78424 19768 ft 230 kts 76°
2026-04-21 04:51 -2.95123 -57.76875 19473 ft 232 kts 76°
2026-04-21 04:51 -2.94713 -57.75348 19135 ft 226 kts 76°
2026-04-21 04:51 -2.94306 -57.73833 18796 ft 220 kts 76°
2026-04-21 04:51 -2.93915 -57.72387 18465 ft 217 kts 76°
2026-04-21 04:52 -2.93518 -57.70916 18120 ft 215 kts 76°
2026-04-21 04:52 -2.93129 -57.69476 17730 ft 214 kts 76°